User: anonymous   Login
Location: Ay?beleni
(36.6500°N, 30.3000°E)
Time: 13:56:17
(UTC+00:00)
Language:

CZ-2C R/B - Orbit

View from above orbital plane
View from above orbital plane
View from above satellite
View from above satellite

Ground track
Ground track

The orbit data is extracted from the following two-line orbital elements,

1 31114U 07010B   20192.07518422 -.00000059  00000-0 -88615-5 0  9990
2 31114  98.2595  43.4305 0059184 200.2409 159.6421 14.19324336686221
Epoch (UTC): 10 July 2020 01:48:15
Eccentricity: 0.0059184
inclination: 98.2595°
perigee height: 785 km
apogee height: 870 km
right ascension of ascending node: 43.4305°
argument of perigee: 200.2409°
revolutions per day: 14.19324336
mean anomaly at epoch: 159.6421°
orbit number at epoch: 68622

The dashed part of the orbit path shows where the satellite is in the earth's shadow,  

DLR